Defiance, OH

11:25 PM EDT on October 23, 2017 (GMT -0400)
Defiance Memorial

Weather History for KDFI - September, 2013

Change the Weather History Date:

Monday, September 2, 2013

  Actual Average Record
Temperature  
Mean Temperature 72 °F -  
Max Temperature 82 °F 81 °F 99 °F (1953)
Min Temperature 61 °F 57 °F 39 °F (1946)
Cooling Degree Days 7    
Growing Degree Days 22 (Base 50)    
Moisture  
Dew Point 64 °F    
Average Humidity 81    
Maximum Humidity 100    
Minimum Humidity 41    
Precipitation  
Precipitation 0.00 in - - ()
Sea Level Pressure  
Sea Level Pressure 29.82 in    
Wind  
Wind Speed 4 mph (NW)    
Max Wind Speed 17 mph    
Max Gust Speed 22 mph    
Visibility 4 miles    
Events Fog    
Averages and records for this station are not official NWS values.
T = Trace of Precipitation, MM = Missing Value Source: NWS Daily Summary

Daily Weather History Graph

Daily Weather History Graph

Search for Another Location

Airport or City:

Trip Planner

Search our weather history database for the weather conditions in past years. The results will help you decide how hot, cold, wet, or windy it might be!

Date:

Astronomy

Sep. 02, 2013 Rise Set
Actual Time 7:05 AM EDT 8:08 PM EDT
Civil Twilight 6:36 AM EDT 8:36 PM EDT
Nautical Twilight 6:03 AM EDT 9:10 PM EDT
Astronomical Twilight 5:27 AM EDT 9:45 PM EDT
Moon 4:20 AM EDT (9/2) 6:22 PM EDT (9/2)
Length of Visible Light 13h 59m
Length of Day
13h 03m
Waning Crescent, 8% of the Moon is Illuminated
Sep 2
Waning Crescent
Sep 5
New
Sep 12
First Quarter
Sep 19
Full
Sep 26
Last Quarter

Hourly Weather History & Observations

Time (EDT) Temp. Heat Index Dew Point Humidity Pressure Visibility Wind Dir Wind Speed Gust Speed Precip Events Conditions
12:53 AM 70.0 °F - 66.9 °F 90% 29.78 in 5.0 mi SSW 3.5 mph - N/A   Scattered Clouds
1:38 AM 68.0 °F - 66.2 °F 94% 29.78 in 2.0 mi Calm Calm - N/A   Clear
1:48 AM 68.0 °F - 66.2 °F 94% 29.78 in 1.0 mi SSW 3.5 mph - N/A   Mist
1:53 AM 66.0 °F - 64.9 °F 96% 29.78 in 0.8 mi SSW 3.5 mph - N/A   Mist
2:02 AM 68.0 °F - 64.4 °F 88% 29.79 in 2.0 mi Calm Calm - N/A   Partly Cloudy
2:13 AM 69.8 °F - 66.2 °F 88% 29.79 in 2.5 mi Calm Calm - N/A   Partly Cloudy
2:25 AM 66.2 °F - 64.4 °F 94% 29.78 in 2.0 mi Calm Calm - N/A   Scattered Clouds
2:27 AM 66.2 °F - 64.4 °F 94% 29.78 in 1.0 mi Calm Calm - N/A   Mist
2:30 AM 66.2 °F - 64.4 °F 94% 29.78 in 0.5 mi Calm Calm - N/A Fog Fog
2:44 AM 68.0 °F - 66.2 °F 94% 29.78 in 1.2 mi SSW 3.5 mph - N/A   Scattered Clouds
2:53 AM 68.0 °F - 66.0 °F 93% 29.76 in 1.5 mi Calm Calm - N/A   Scattered Clouds
3:20 AM 68.0 °F - 66.2 °F 94% 29.77 in 2.0 mi SW 3.5 mph - N/A   Clear
3:33 AM 68.0 °F - 66.2 °F 94% 29.78 in 2.5 mi Calm Calm - N/A   Clear
3:53 AM 68.0 °F - 66.0 °F 93% 29.76 in 2.0 mi SSW 3.5 mph - N/A   Clear
4:02 AM 66.2 °F - 64.4 °F 94% 29.78 in 1.8 mi Calm Calm - N/A   Scattered Clouds
4:10 AM 66.2 °F - 66.2 °F 100% 29.78 in 1.5 mi Calm Calm - N/A   Mostly Cloudy
4:42 AM 66.2 °F - 64.4 °F 94% 29.77 in 0.2 mi South 3.5 mph - N/A Fog Fog
4:49 AM 66.2 °F - 64.4 °F 94% 29.77 in 0.5 mi Calm Calm - N/A Fog Fog
4:53 AM 68.0 °F - 66.0 °F 93% 29.76 in 1.0 mi Calm Calm - N/A   Mist
5:04 AM 68.0 °F - 66.2 °F 94% 29.78 in 0.8 mi Calm Calm - N/A   Mist
5:53 AM 66.9 °F - 66.0 °F 97% 29.77 in 0.2 mi Calm Calm - N/A Fog Fog
6:53 AM 68.0 °F - 66.0 °F 93% 29.78 in 0.2 mi SSW 3.5 mph - N/A Fog Fog
7:14 AM 68.0 °F - 66.2 °F 94% 29.81 in 1.0 mi Calm Calm - N/A   Mist
7:37 AM 69.8 °F - 66.2 °F 88% 29.81 in 1.2 mi Calm Calm - N/A   Overcast
7:44 AM 69.8 °F - 66.2 °F 88% 29.81 in 1.2 mi SW 3.5 mph - N/A   Overcast
7:53 AM 69.1 °F - 66.9 °F 93% 29.80 in 1.5 mi Calm Calm - N/A   Overcast
8:32 AM 69.8 °F - 68.0 °F 94% 29.82 in 2.0 mi Calm Calm - N/A   Overcast
8:53 AM 70.0 °F - 68.0 °F 93% 29.81 in 2.0 mi NW 4.6 mph - N/A   Overcast
9:07 AM 71.6 °F - 68.0 °F 88% 29.82 in 2.0 mi NW 5.8 mph - N/A   Overcast
9:20 AM 71.6 °F - 68.0 °F 88% 29.83 in 2.5 mi NW 5.8 mph - N/A   Overcast
9:30 AM 71.6 °F - 68.0 °F 88% 29.83 in 3.0 mi NW 8.1 mph - N/A   Overcast
9:53 AM 73.0 °F - 68.0 °F 84% 29.83 in 5.0 mi NNW 6.9 mph - N/A   Haze
9:59 AM 73.4 °F - 68.0 °F 83% 29.84 in 5.0 mi North 6.9 mph - N/A   Haze
10:25 AM 73.4 °F - 66.2 °F 78% 29.85 in 7.0 mi NNW 13.8 mph - N/A   Overcast
10:45 AM 73.4 °F - 66.2 °F 78% 29.86 in 10.0 mi North 10.4 mph - N/A   Overcast
10:53 AM 75.9 °F - 66.0 °F 71% 29.85 in 10.0 mi NNW 10.4 mph - N/A   Mostly Cloudy
11:53 AM 78.1 °F - 61.0 °F 56% 29.86 in 10.0 mi NNW 9.2 mph - N/A   Partly Cloudy
12:53 PM 81.0 °F 81.3 °F 59.0 °F 47% 29.85 in 10.0 mi NNW 9.2 mph 17.3 mph N/A   Clear
1:53 PM 80.1 °F 80.7 °F 59.0 °F 48% 29.85 in 10.0 mi NNW 8.1 mph 19.6 mph N/A   Mostly Cloudy
2:53 PM 82.0 °F 81.7 °F 57.0 °F 42% 29.85 in 10.0 mi NW 9.2 mph - N/A   Scattered Clouds
3:53 PM 81.0 °F 80.7 °F 55.0 °F 41% 29.83 in 10.0 mi NNW 12.7 mph 20.7 mph N/A   Scattered Clouds
4:53 PM 81.0 °F 80.7 °F 55.0 °F 41% 29.83 in 10.0 mi NW 12.7 mph 21.9 mph N/A   Clear
5:53 PM 79.0 °F - 55.0 °F 44% 29.84 in 10.0 mi NW 15.0 mph 20.7 mph N/A   Partly Cloudy
6:53 PM 75.9 °F - 55.9 °F 50% 29.85 in 10.0 mi NNW 17.3 mph 20.7 mph N/A   Partly Cloudy
7:53 PM 72.0 °F - 55.0 °F 55% 29.87 in 10.0 mi NNW 9.2 mph - N/A   Clear
8:53 PM 68.0 °F - 55.0 °F 63% 29.90 in 10.0 mi NNW 11.5 mph 19.6 mph N/A   Clear
9:53 PM 63.0 °F - 55.0 °F 75% 29.91 in 10.0 mi NNW 4.6 mph - N/A   Clear
10:53 PM 62.1 °F - 54.0 °F 75% 29.93 in 10.0 mi NW 6.9 mph - N/A   Clear
11:53 PM 61.0 °F - 54.0 °F 78% 29.94 in 10.0 mi NNW 9.2 mph - N/A   Clear